BAW2616 EGKK-LMML

Flight info

Callsign BAW2616
Flight time N/A
Altitude 35000
Route BOGNA L612 HAWKE UL612 OGULO DCT OKASI DCT OKEKO DCT MOU DCT MADIV DCT MOKIP DCT TUFTA DCT KOGAS DCT MEDAM DCT NITAM DCT MOGBO DCT TIDKA DCT KONER DCT POKAV DCT MARON/N0394F190 L12 GZO
Aircraft A320/M-SDE3FGHIRWY/LB1

Departure

Time 2026-04-18 07:56
Airport London Gatwick Airport (EGKK)

Arrival

Time N/A
Airport Malta International Airport (LMML)
Time Latitude Longitude Altitude Speed Heading
2026-04-18 07:24 51.15506 -0.16773 211 ft 0 kts 348°
2026-04-18 07:39 51.15491 -0.16768 211 ft 2 kts 348°
2026-04-18 07:39 51.15474 -0.16762 214 ft 2 kts 348°
2026-04-18 07:40 51.15458 -0.16763 213 ft 2 kts 51°
2026-04-18 07:40 51.15453 -0.16772 212 ft 0 kts 79°
2026-04-18 07:40 51.15454 -0.16768 213 ft 0 kts 79°
2026-04-18 07:43 51.15420 -0.16722 206 ft 16 kts 165°
2026-04-18 07:43 51.15303 -0.16667 205 ft 18 kts 169°
2026-04-18 07:44 51.15233 -0.16645 211 ft 0 kts 168°
2026-04-18 07:50 51.15228 -0.16643 209 ft 1 kts 168°
2026-04-18 07:51 51.15208 -0.16636 204 ft 4 kts 168°
2026-04-18 07:51 51.15170 -0.16629 200 ft 7 kts 185°
2026-04-18 07:51 51.15132 -0.16697 199 ft 11 kts 254°
2026-04-18 07:51 51.15130 -0.16713 199 ft 0 kts 256°
2026-04-18 07:55 51.15118 -0.16795 203 ft 31 kts 257°
2026-04-18 07:56 51.15023 -0.17482 208 ft 93 kts 257°
2026-04-18 07:56 51.14846 -0.18763 202 ft 142 kts 257°
2026-04-18 07:56 51.14630 -0.20402 648 ft 140 kts 257°
2026-04-18 07:56 51.14391 -0.21801 1250 ft 140 kts 257°
2026-04-18 07:57 51.14093 -0.23337 1697 ft 143 kts 255°
2026-04-18 07:57 51.13822 -0.24854 2035 ft 148 kts 261°
2026-04-18 07:57 51.13615 -0.26547 2138 ft 170 kts 262°
2026-04-18 07:57 51.13384 -0.28528 2310 ft 192 kts 262°
2026-04-18 07:58 51.12819 -0.33069 3317 ft 215 kts 259°
2026-04-18 07:58 51.12511 -0.35408 4086 ft 216 kts 259°
2026-04-18 07:58 51.12195 -0.37755 4924 ft 217 kts 258°
2026-04-18 07:59 51.11793 -0.40059 5689 ft 218 kts 243°
2026-04-18 07:59 51.10721 -0.41747 6439 ft 225 kts 207°
2026-04-18 07:59 51.09153 -0.42086 7155 ft 234 kts 181°
2026-04-18 07:59 51.07517 -0.41890 7859 ft 238 kts 180°
2026-04-18 08:00 51.05781 -0.41657 8138 ft 262 kts 180°
2026-04-18 08:00 51.03927 -0.41404 8675 ft 272 kts 180°
2026-04-18 08:00 51.02029 -0.41139 9392 ft 276 kts 180°
2026-04-18 08:00 51.00102 -0.40871 10108 ft 279 kts 180°
2026-04-18 08:01 50.98156 -0.40611 10772 ft 282 kts 180°
2026-04-18 08:01 50.96190 -0.40356 11458 ft 284 kts 181°
2026-04-18 08:01 50.94215 -0.40102 12149 ft 285 kts 181°
2026-04-18 08:01 50.92231 -0.39848 12826 ft 287 kts 181°
2026-04-18 08:02 50.90232 -0.39593 13519 ft 289 kts 181°
2026-04-18 08:02 50.88224 -0.39337 14165 ft 291 kts 182°
2026-04-18 08:02 50.86195 -0.39081 14701 ft 294 kts 181°
2026-04-18 08:02 50.84143 -0.38666 15255 ft 303 kts 172°
2026-04-18 08:03 50.82140 -0.37482 15798 ft 314 kts 158°
2026-04-18 08:03 50.80295 -0.35637 16344 ft 321 kts 153°
2026-04-18 08:03 50.78424 -0.33682 16890 ft 323 kts 153°
2026-04-18 08:03 50.76535 -0.31720 17433 ft 326 kts 153°
2026-04-18 08:04 50.74628 -0.29747 17976 ft 329 kts 153°
2026-04-18 08:04 50.72704 -0.27759 18514 ft 332 kts 153°
2026-04-18 08:04 50.70768 -0.25761 18985 ft 334 kts 154°
2026-04-18 08:04 50.68797 -0.23728 19284 ft 345 kts 153°
2026-04-18 08:05 50.66757 -0.21612 19404 ft 359 kts 153°
2026-04-18 08:05 50.64627 -0.19389 19511 ft 373 kts 152°
2026-04-18 08:05 50.62425 -0.17081 19644 ft 387 kts 152°
2026-04-18 08:05 50.60144 -0.14687 19772 ft 401 kts 152°
2026-04-18 08:06 50.57791 -0.12217 19902 ft 414 kts 152°
2026-04-18 08:06 50.55376 -0.09677 20216 ft 420 kts 152°
2026-04-18 08:06 50.52931 -0.07108 20632 ft 423 kts 152°
2026-04-18 08:06 50.50472 -0.04537 21054 ft 426 kts 152°
2026-04-18 08:07 50.47994 -0.01957 21464 ft 429 kts 152°
2026-04-18 08:07 50.45498 0.00632 21851 ft 431 kts 152°
2026-04-18 08:07 50.42993 0.03227 22251 ft 433 kts 153°
2026-04-18 08:07 50.40469 0.05840 22589 ft 435 kts 153°
2026-04-18 08:08 50.37936 0.08459 22953 ft 438 kts 153°
2026-04-18 08:08 50.35415 0.11063 23310 ft 440 kts 153°
2026-04-18 08:08 50.32846 0.13713 23667 ft 443 kts 153°
2026-04-18 08:08 50.30266 0.16372 23995 ft 445 kts 153°
2026-04-18 08:09 50.27673 0.19043 24295 ft 447 kts 153°
2026-04-18 08:09 50.25072 0.21714 24578 ft 448 kts 154°
2026-04-18 08:09 50.22458 0.24396 24868 ft 450 kts 154°
2026-04-18 08:09 50.19830 0.27093 25149 ft 452 kts 154°
2026-04-18 08:10 50.17200 0.29796 25419 ft 453 kts 154°
2026-04-18 08:10 50.14603 0.32467 25790 ft 453 kts 154°
2026-04-18 08:10 50.11980 0.35167 26216 ft 451 kts 154°
2026-04-18 08:10 50.09363 0.37857 26637 ft 450 kts 155°
2026-04-18 08:11 50.06746 0.40543 27056 ft 449 kts 155°
2026-04-18 08:11 50.04144 0.43213 27488 ft 448 kts 155°
2026-04-18 08:11 50.01544 0.45868 27902 ft 447 kts 155°
2026-04-18 08:11 49.98946 0.48514 28355 ft 445 kts 155°
2026-04-18 08:12 49.96366 0.51142 28754 ft 444 kts 155°
2026-04-18 08:12 49.93779 0.53770 29143 ft 444 kts 155°
2026-04-18 08:12 49.91193 0.56392 29548 ft 443 kts 155°
2026-04-18 08:12 49.88611 0.59008 29964 ft 443 kts 156°
2026-04-18 08:13 49.86040 0.61633 30379 ft 444 kts 153°
2026-04-18 08:13 49.83586 0.64606 30735 ft 449 kts 149°
2026-04-18 08:13 49.81199 0.67618 31091 ft 448 kts 149°
2026-04-18 08:13 49.78753 0.70704 31460 ft 447 kts 149°
2026-04-18 08:14 49.76370 0.73707 31819 ft 447 kts 149°
2026-04-18 08:14 49.73966 0.76726 32176 ft 446 kts 150°
2026-04-18 08:14 49.71552 0.79749 32537 ft 445 kts 150°
2026-04-18 08:14 49.69142 0.82766 32907 ft 445 kts 150°
2026-04-18 08:15 49.66741 0.85773 33268 ft 444 kts 150°
2026-04-18 08:15 49.64340 0.88779 33639 ft 444 kts 150°
2026-04-18 08:15 49.61949 0.91769 33975 ft 443 kts 149°
2026-04-18 08:15 49.59553 0.94755 34286 ft 442 kts 150°
2026-04-18 08:16 49.57158 0.97730 34558 ft 442 kts 149°
2026-04-18 08:16 49.54760 1.00705 34747 ft 442 kts 149°
2026-04-18 08:16 49.52369 1.03671 35060 ft 441 kts 149°
2026-04-18 08:16 49.49973 1.06636 35180 ft 442 kts 149°
2026-04-18 08:17 49.47565 1.09612 35223 ft 447 kts 149°
2026-04-18 08:17 49.42642 1.15675 35220 ft 459 kts 149°
2026-04-18 08:18 49.37639 1.21844 35221 ft 463 kts 149°
2026-04-18 08:18 49.32636 1.28017 35220 ft 463 kts 149°
2026-04-18 08:19 49.27606 1.34195 35203 ft 464 kts 148°
2026-04-18 08:19 49.23402 1.39329 35224 ft 465 kts 148°
2026-04-18 08:20 49.18336 1.45501 35229 ft 466 kts 148°
2026-04-18 08:20 49.13269 1.51674 35232 ft 466 kts 148°
2026-04-18 08:21 49.08199 1.57831 35235 ft 466 kts 149°
2026-04-18 08:21 49.03110 1.63974 35202 ft 466 kts 148°
2026-04-18 08:22 48.98030 1.70106 35224 ft 466 kts 148°
2026-04-18 08:22 48.92942 1.76234 35203 ft 466 kts 148°
2026-04-18 08:23 48.87856 1.82335 35214 ft 465 kts 148°
2026-04-18 08:23 48.82774 1.88425 35214 ft 465 kts 148°
2026-04-18 08:24 48.77724 1.94449 35211 ft 465 kts 148°
2026-04-18 08:24 48.72639 2.00506 35211 ft 464 kts 148°
2026-04-18 08:25 48.67558 2.06545 35215 ft 464 kts 148°
2026-04-18 08:25 48.62484 2.12555 35192 ft 464 kts 148°
2026-04-18 08:26 48.57403 2.18561 35188 ft 464 kts 146°
2026-04-18 08:26 48.52749 2.25427 35225 ft 469 kts 140°
2026-04-18 08:27 48.48159 2.32407 35229 ft 468 kts 141°
2026-04-18 08:27 48.43592 2.39316 35231 ft 468 kts 141°
2026-04-18 08:28 48.38988 2.46266 35215 ft 468 kts 141°
2026-04-18 08:28 48.34391 2.53185 35223 ft 467 kts 141°
2026-04-18 08:29 48.29760 2.60013 35207 ft 464 kts 146°
2026-04-18 08:29 48.24428 2.65154 35213 ft 450 kts 162°
2026-04-18 08:30 48.18765 2.69165 35193 ft 452 kts 159°
2026-04-18 08:30 48.13205 2.73663 35199 ft 455 kts 157°
2026-04-18 08:31 48.07649 2.78190 35209 ft 451 kts 162°
2026-04-18 08:31 48.01903 2.81919 35210 ft 450 kts 163°
2026-04-18 08:32 47.96170 2.85546 35198 ft 450 kts 163°
2026-04-18 08:32 47.90406 2.89174 35210 ft 450 kts 163°
2026-04-18 08:33 47.84633 2.92821 35216 ft 450 kts 163°
2026-04-18 08:33 47.78865 2.96473 35207 ft 450 kts 162°
2026-04-18 08:34 47.73093 3.00110 35185 ft 451 kts 162°
2026-04-18 08:34 47.67312 3.03737 35200 ft 451 kts 162°
2026-04-18 08:35 47.61519 3.07366 35210 ft 451 kts 162°
2026-04-18 08:35 47.55734 3.10989 35210 ft 452 kts 162°
2026-04-18 08:36 47.49933 3.14610 35200 ft 452 kts 162°
2026-04-18 08:36 47.44126 3.18221 35207 ft 453 kts 162°
2026-04-18 08:37 47.38318 3.21820 35209 ft 453 kts 162°
2026-04-18 08:37 47.32546 3.25403 35199 ft 453 kts 162°
2026-04-18 08:38 47.26720 3.28996 35204 ft 454 kts 162°
2026-04-18 08:38 47.20880 3.32589 35210 ft 455 kts 162°
2026-04-18 08:39 47.15034 3.36174 35213 ft 455 kts 162°
2026-04-18 08:39 47.09178 3.39757 35207 ft 456 kts 162°
2026-04-18 08:40 47.03319 3.43345 35215 ft 457 kts 162°
2026-04-18 08:40 46.97453 3.46929 35222 ft 457 kts 162°
2026-04-18 08:41 46.91581 3.50507 35213 ft 457 kts 162°
2026-04-18 08:41 46.85742 3.54053 35224 ft 457 kts 162°
2026-04-18 08:42 46.79874 3.57601 35222 ft 457 kts 162°
2026-04-18 08:42 46.74318 3.62182 35228 ft 466 kts 143°
2026-04-18 08:42 46.72024 3.65556 35223 ft 472 kts 131°
2026-04-18 08:43 46.70187 3.69537 35231 ft 476 kts 120°
2026-04-18 08:43 46.68886 3.73989 35224 ft 480 kts 108°
2026-04-18 08:43 46.68058 3.78691 35215 ft 481 kts 105°
2026-04-18 08:44 46.66460 3.88155 35221 ft 482 kts 105°
2026-04-18 08:44 46.64822 3.97627 35234 ft 482 kts 106°
2026-04-18 08:45 46.63176 4.07093 35222 ft 482 kts 105°
2026-04-18 08:45 46.61530 4.16569 35233 ft 482 kts 105°
2026-04-18 08:46 46.59886 4.25956 35247 ft 482 kts 106°
2026-04-18 08:46 46.58224 4.35397 35245 ft 482 kts 106°
2026-04-18 08:47 46.56550 4.44839 35236 ft 482 kts 105°
2026-04-18 08:47 46.54873 4.54274 35235 ft 482 kts 106°
2026-04-18 08:48 46.53186 4.63706 35235 ft 482 kts 106°
2026-04-18 08:48 46.51491 4.73119 35235 ft 482 kts 106°
2026-04-18 08:49 46.49780 4.82533 35234 ft 482 kts 106°
2026-04-18 08:49 46.48071 4.91934 35235 ft 481 kts 106°
2026-04-18 08:50 46.46358 5.01320 35233 ft 481 kts 106°
2026-04-18 08:50 46.44644 5.10681 35224 ft 480 kts 106°
2026-04-18 08:51 46.42928 5.20023 35224 ft 479 kts 106°
2026-04-18 08:51 46.41214 5.29291 35220 ft 479 kts 106°
2026-04-18 08:52 46.39336 5.38535 35218 ft 477 kts 114°
2026-04-18 08:52 46.36035 5.46779 35214 ft 471 kts 131°
2026-04-18 08:53 46.31795 5.53994 35212 ft 471 kts 133°
2026-04-18 08:53 46.27544 5.61203 35206 ft 471 kts 133°
2026-04-18 08:54 46.23275 5.68424 35216 ft 472 kts 133°
2026-04-18 08:54 46.19003 5.75616 35215 ft 472 kts 133°
2026-04-18 08:55 46.14726 5.82799 35221 ft 472 kts 133°
2026-04-18 08:55 46.10443 5.89970 35228 ft 472 kts 133°
2026-04-18 08:56 46.06152 5.97133 35227 ft 472 kts 133°
2026-04-18 08:56 46.01862 6.04291 35234 ft 472 kts 133°
2026-04-18 08:57 45.95446 6.14963 35228 ft 472 kts 133°
2026-04-18 08:57 45.91133 6.22095 35231 ft 472 kts 133°
2026-04-18 08:58 45.86824 6.29205 35232 ft 472 kts 133°
2026-04-18 08:58 45.82505 6.36324 35232 ft 472 kts 133°
2026-04-18 08:59 45.77580 6.42422 35222 ft 467 kts 147°
2026-04-18 08:59 45.72266 6.47809 35222 ft 468 kts 147°
2026-04-18 09:00 45.66959 6.53204 35223 ft 468 kts 147°
2026-04-18 09:00 45.61684 6.58557 35231 ft 468 kts 147°
2026-04-18 09:01 45.56374 6.63933 35223 ft 468 kts 146°
2026-04-18 09:01 45.51066 6.69295 35230 ft 468 kts 146°
2026-04-18 09:02 45.45752 6.74653 35234 ft 467 kts 146°
2026-04-18 09:02 45.40432 6.80003 35233 ft 467 kts 146°
2026-04-18 09:03 45.35111 6.85337 35226 ft 467 kts 146°
2026-04-18 09:03 45.29828 6.90612 35224 ft 467 kts 146°
2026-04-18 09:04 45.24742 6.96338 35221 ft 469 kts 136°
2026-04-18 09:04 45.20070 7.02803 35227 ft 468 kts 137°
2026-04-18 09:05 45.15388 7.09230 35217 ft 468 kts 136°
2026-04-18 09:05 45.10771 7.15731 35224 ft 469 kts 130°
2026-04-18 09:06 45.06947 7.23204 35225 ft 469 kts 125°
2026-04-18 09:06 45.03834 7.29473 35225 ft 469 kts 126°
2026-04-18 09:07 45.00067 7.36999 35218 ft 469 kts 126°
2026-04-18 09:07 44.96001 7.44179 35174 ft 468 kts 133°
2026-04-18 09:08 44.91607 7.50996 35173 ft 469 kts 133°
2026-04-18 09:08 44.87222 7.57801 35177 ft 469 kts 133°
2026-04-18 09:09 44.82860 7.64564 35178 ft 469 kts 133°
2026-04-18 09:09 44.78437 7.71393 35177 ft 469 kts 133°
2026-04-18 09:10 44.74069 7.78118 35178 ft 469 kts 133°
2026-04-18 09:10 44.69664 7.84891 35178 ft 469 kts 133°
2026-04-18 09:11 44.65241 7.91659 35176 ft 470 kts 133°
2026-04-18 09:11 44.60820 7.98406 35181 ft 470 kts 133°
2026-04-18 09:12 44.56391 8.05178 35180 ft 470 kts 133°
2026-04-18 09:12 44.51994 8.11878 35179 ft 470 kts 133°
2026-04-18 09:13 44.47561 8.18603 35179 ft 470 kts 133°
2026-04-18 09:13 44.43112 8.25323 35177 ft 470 kts 133°
2026-04-18 09:14 44.38663 8.32034 35174 ft 470 kts 133°
2026-04-18 09:14 44.34213 8.38752 35176 ft 470 kts 133°
2026-04-18 09:15 44.29796 8.45407 35161 ft 470 kts 133°
2026-04-18 09:15 44.25344 8.52084 35166 ft 470 kts 133°
2026-04-18 09:16 44.20873 8.58766 35168 ft 470 kts 133°
2026-04-18 09:16 44.16406 8.65427 35172 ft 470 kts 133°
2026-04-18 09:17 44.11965 8.72045 35176 ft 470 kts 132°
2026-04-18 09:17 44.07490 8.78696 35167 ft 471 kts 132°
2026-04-18 09:18 44.03012 8.85333 35162 ft 471 kts 132°
2026-04-18 09:18 43.98517 8.91981 35163 ft 472 kts 132°
2026-04-18 09:19 43.94018 8.98616 35168 ft 472 kts 132°
2026-04-18 09:19 43.89511 9.05250 35168 ft 472 kts 132°
2026-04-18 09:20 43.85006 9.11870 35172 ft 472 kts 132°
2026-04-18 09:20 43.80496 9.18452 35171 ft 471 kts 134°
2026-04-18 09:21 43.75545 9.24330 35172 ft 472 kts 139°
2026-04-18 09:21 43.70486 9.30132 35171 ft 472 kts 139°
2026-04-18 09:22 43.65436 9.35918 35166 ft 472 kts 139°
2026-04-18 09:22 43.60386 9.41696 35162 ft 471 kts 139°
2026-04-18 09:23 43.55329 9.47464 35177 ft 471 kts 139°
2026-04-18 09:23 43.50194 9.53069 35170 ft 471 kts 146°
2026-04-18 09:24 43.44465 9.57423 35170 ft 471 kts 151°
2026-04-18 09:24 43.38710 9.61648 35160 ft 471 kts 151°
2026-04-18 09:25 43.32925 9.65880 35156 ft 471 kts 151°
2026-04-18 09:25 43.27128 9.70104 35157 ft 472 kts 151°
2026-04-18 09:26 43.21334 9.74325 35158 ft 472 kts 151°
2026-04-18 09:26 43.15537 9.78547 35157 ft 472 kts 151°
2026-04-18 09:27 43.09727 9.82758 35156 ft 472 kts 151°
2026-04-18 09:27 43.03925 9.86960 35165 ft 472 kts 151°
2026-04-18 09:28 42.98125 9.91160 35155 ft 472 kts 151°
2026-04-18 09:28 42.92317 9.95355 35152 ft 472 kts 151°
2026-04-18 09:29 42.86508 9.99532 35151 ft 472 kts 151°
2026-04-18 09:29 42.80694 10.03703 35152 ft 472 kts 151°
2026-04-18 09:30 42.74874 10.07872 35154 ft 473 kts 151°
2026-04-18 09:30 42.69044 10.12040 35147 ft 473 kts 151°
2026-04-18 09:31 42.63252 10.16177 35145 ft 473 kts 151°
2026-04-18 09:31 42.57417 10.20333 35147 ft 474 kts 151°
2026-04-18 09:32 42.51579 10.24484 35155 ft 473 kts 151°
2026-04-18 09:32 42.45745 10.28619 35155 ft 473 kts 151°
2026-04-18 09:33 42.39915 10.32744 35153 ft 473 kts 151°
2026-04-18 09:33 42.34088 10.36861 35149 ft 473 kts 151°
2026-04-18 09:34 42.28254 10.40962 35150 ft 473 kts 151°
2026-04-18 09:34 42.22417 10.45055 35145 ft 473 kts 151°
2026-04-18 09:35 42.16578 10.49154 35146 ft 472 kts 151°
2026-04-18 09:35 42.10742 10.53250 35131 ft 473 kts 151°
2026-04-18 09:36 42.04909 10.57328 35130 ft 473 kts 151°
2026-04-18 09:36 41.99070 10.61399 35141 ft 472 kts 151°
2026-04-18 09:37 41.93241 10.65452 35137 ft 471 kts 151°
2026-04-18 09:37 41.87418 10.69490 35131 ft 471 kts 152°
2026-04-18 09:38 41.81632 10.73497 35125 ft 471 kts 152°
2026-04-18 09:38 41.75852 10.77500 35103 ft 446 kts 151°
2026-04-18 09:39 41.73161 10.79369 35053 ft 427 kts 151°
2026-04-18 09:39 41.70572 10.81186 35014 ft 412 kts 150°